Orbital Elements at Epoch 2459200.5 (2020-Dec-17.0) TDB
Reference: JPL 22 (heliocentric ecliptic J2000)
Element | Value | Uncertainty (1-sigma) | Units |
e | .1976720817613016 | 4.4125e-08 | |
a | 2.315367249567412 | 7.2292e-09 | au |
q | 1.857683785303483 | 1.0053e-07 | au |
i | 3.994772354285144 | 2.9928e-06 | deg |
node | 126.0777809065609 | 6.8116e-05 | deg |
peri | 209.9784186224988 | 6.9125e-05 | deg |
M | 55.18101831179215 | 1.3015e-05 | deg |
tp | 2459003.250702215731 (2020-Jun-02.75070222) | 4.6361e-05 | TDB |
period | 1286.850974751984 3.52 | 6.0268e-06 1.65e-08 | d yr |
n | .2797526730469962 | 1.3102e-09 | deg/d |
Q | 2.773050713831342 | 8.6582e-09 | au |
|
| | Orbit Determination Parameters
Additional Information
|